Location: Mahannah Oil Field
(37.4664°N, 96.6003°W)
Time: 08:38:30
(UTC+00:00)

Vanguard 3 - Pass Details

Date: 25 January 2021
Orbit: 508 x 3261 km, 33.3° (Epoch: 24 February)

Event Time Altitude Azimuth Distance (km) Brightness Sun altitude
Exits shadow 11:23:31 44° 244° (WSW) 1,768 8.4 -26.0°
Maximum altitude 11:26:28 70° 177° (S) 1,615 8.5 -25.4°
Drops below altitude 10° 11:39:36 10° 97° (E) 5,049 12.3 -22.8°
Sets 11:44:31 0° 96° (E) 6,452 13.3 -21.9°
